{"data":{"norad_id":57708,"epoch":"2026-05-25T03:05:47.770368Z","epoch_age_seconds":56827,"freshness":"FRESH","line1":"1 57708U 23129L   26145.12902512 -.00001659  00000+0 -50748-4 0  9994","line2":"2 57708  43.0037  46.1597 0001581 255.1116 104.9561 15.27597607152377","mean_motion":15.27597607,"eccentricity":0.0001581,"inclination_deg":43.0037,"raan_deg":46.1597,"arg_perigee_deg":255.1116,"mean_anomaly_deg":104.9561,"bstar":-5.0748e-5,"rev_number":15237,"period_min":94.265662200661,"perigee_km":481.91162966739,"apogee_km":484.08112004052,"semimajor_km":6861.133374854,"source":"CELESTRAK","updated_at":"2026-05-25T13:38:18.372628Z"}}